TimeMST,TemperatureF,Dew PointF,Humidity,Sea Level PressureIn,VisibilityMPH,Wind Direction,Wind SpeedMPH,Gust SpeedMPH,PrecipitationIn,Events,Conditions,WindDirDegrees,DateUTC
12:15 AM,13.6,6.6,74,29.70,10.0,Calm,Calm,-,N/A,,Clear,0,2013-02-20 07:15:00
12:35 AM,14.4,5.7,69,29.69,10.0,Calm,Calm,-,N/A,,Clear,0,2013-02-20 07:35:00
12:55 AM,14.4,6.1,70,29.68,10.0,Calm,Calm,-,N/A,,Clear,0,2013-02-20 07:55:00
1:15 AM,15.8,6.4,67,29.68,10.0,Calm,Calm,-,N/A,,Clear,0,2013-02-20 08:15:00
1:35 AM,13.8,5.7,70,29.68,10.0,Calm,Calm,-,N/A,,Clear,0,2013-02-20 08:35:00
1:55 AM,13.1,4.8,70,29.67,10.0,Calm,Calm,-,N/A,,Clear,0,2013-02-20 08:55:00
2:15 AM,13.5,5.0,69,29.67,10.0,Calm,Calm,-,N/A,,Clear,0,2013-02-20 09:15:00
2:35 AM,11.8,3.7,70,29.66,10.0,Calm,Calm,-,N/A,,Clear,0,2013-02-20 09:35:00
2:55 AM,13.1,5.0,70,29.66,10.0,Calm,Calm,-,N/A,,Clear,0,2013-02-20 09:55:00
3:15 AM,13.3,4.8,69,29.65,10.0,Calm,Calm,-,N/A,,Clear,0,2013-02-20 10:15:00
3:35 AM,12.4,5.0,72,29.65,10.0,East,3.5,-,N/A,,Clear,80,2013-02-20 10:35:00
3:55 AM,11.8,4.6,73,29.64,10.0,Calm,Calm,-,N/A,,Scattered Clouds,0,2013-02-20 10:55:00
4:15 AM,13.1,5.4,71,29.64,10.0,Calm,Calm,-,N/A,,Scattered Clouds,0,2013-02-20 11:15:00
4:35 AM,12.7,4.5,70,29.64,10.0,Calm,Calm,-,N/A,,Clear,0,2013-02-20 11:35:00
4:55 AM,11.7,4.3,72,29.64,10.0,Calm,Calm,-,N/A,,Clear,0,2013-02-20 11:55:00
5:15 AM,13.6,5.5,70,29.64,10.0,Calm,Calm,-,N/A,,Scattered Clouds,0,2013-02-20 12:15:00
5:55 AM,11.1,4.5,75,29.64,10.0,Calm,Calm,-,N/A,,Clear,0,2013-02-20 12:55:00
6:15 AM,11.5,4.5,73,29.64,10.0,ESE,4.6,-,N/A,,Scattered Clouds,110,2013-02-20 13:15:00
6:35 AM,11.1,2.8,69,29.65,10.0,Calm,Calm,-,N/A,,Scattered Clouds,0,2013-02-20 13:35:00
7:15 AM,12.0,4.1,71,29.64,10.0,Calm,Calm,-,N/A,,Clear,0,2013-02-20 14:15:00
7:35 AM,12.6,4.8,71,29.64,10.0,Calm,Calm,-,N/A,,Clear,0,2013-02-20 14:35:00
8:15 AM,12.7,3.7,67,29.64,10.0,Calm,Calm,-,N/A,,Clear,0,2013-02-20 15:15:00
8:35 AM,13.8,4.6,67,29.64,10.0,Calm,Calm,-,N/A,,Clear,0,2013-02-20 15:35:00
8:55 AM,15.1,4.6,63,29.64,10.0,Calm,Calm,-,N/A,,Clear,0,2013-02-20 15:55:00
9:15 AM,17.8,5.7,59,29.63,10.0,Calm,Calm,-,N/A,,Clear,0,2013-02-20 16:15:00
9:35 AM,20.5,5.7,53,29.62,10.0,Calm,Calm,-,N/A,,Clear,0,2013-02-20 16:35:00
9:55 AM,21.6,5.5,50,29.62,10.0,Calm,Calm,-,N/A,,Clear,0,2013-02-20 16:55:00
10:15 AM,22.6,5.9,49,29.61,10.0,Calm,Calm,-,N/A,,Clear,0,2013-02-20 17:15:00
10:35 AM,25.2,6.1,44,29.60,10.0,Calm,Calm,-,N/A,,Clear,0,2013-02-20 17:35:00
10:55 AM,24.6,7.0,47,29.61,10.0,Calm,Calm,-,N/A,,Clear,0,2013-02-20 17:55:00
11:15 AM,27.3,9.0,46,29.60,10.0,Calm,Calm,-,N/A,,Clear,0,2013-02-20 18:15:00
11:35 AM,25.2,7.7,48,29.59,10.0,Calm,Calm,-,N/A,,Clear,0,2013-02-20 18:35:00
11:55 AM,28.9,6.6,39,29.58,10.0,Calm,Calm,-,N/A,,Scattered Clouds,0,2013-02-20 18:55:00
12:15 PM,31.6,5.2,33,29.56,10.0,Calm,Calm,-,N/A,,Mostly Cloudy,0,2013-02-20 19:15:00
12:35 PM,30.4,10.4,43,29.54,10.0,Calm,Calm,-,N/A,,Mostly Cloudy,0,2013-02-20 19:35:00
12:55 PM,32.5,10.0,39,29.54,10.0,Calm,Calm,-,N/A,,Clear,0,2013-02-20 19:55:00
1:15 PM,32.0,11.5,43,29.52,10.0,Calm,Calm,-,N/A,,Clear,0,2013-02-20 20:15:00
1:55 PM,33.4,10.6,39,29.50,10.0,Calm,Calm,-,N/A,,Clear,0,2013-02-20 20:55:00
2:15 PM,33.8,8.8,35,29.50,10.0,Calm,Calm,-,N/A,,Clear,0,2013-02-20 21:15:00
2:35 PM,34.9,7.7,32,29.50,10.0,Calm,Calm,-,N/A,,Clear,0,2013-02-20 21:35:00
2:55 PM,38.7,7.2,27,29.49,10.0,Calm,Calm,-,N/A,,Scattered Clouds,0,2013-02-20 21:55:00
3:15 PM,40.5,7.3,26,29.50,10.0,Calm,Calm,-,N/A,,Mostly Cloudy,0,2013-02-20 22:15:00
3:35 PM,38.3,8.4,29,29.50,10.0,Calm,Calm,-,N/A,,Overcast,0,2013-02-20 22:35:00
3:55 PM,36.5,9.3,32,29.50,10.0,East,3.5,-,N/A,,Overcast,80,2013-02-20 22:55:00
4:15 PM,36.7,7.3,30,29.51,10.0,SSE,4.6,-,N/A,,Overcast,160,2013-02-20 23:15:00
4:34 PM,35.1,7.9,32,29.51,10.0,WSW,5.8,-,N/A,,Overcast,240,2013-02-20 23:34:00
4:47 PM,34.0,10.2,37,29.51,10.0,WSW,5.8,-,N/A,,Overcast,240,2013-02-20 23:47:00
5:10 PM,32.0,11.3,42,29.52,10.0,Calm,Calm,-,N/A,,Scattered Clouds,0,2013-02-21 00:10:00
5:31 PM,30.7,11.3,44,29.52,10.0,Calm,Calm,-,N/A,,Mostly Cloudy,0,2013-02-21 00:31:00
5:49 PM,31.3,10.9,43,29.52,10.0,SSE,3.5,-,N/A,,Scattered Clouds,150,2013-02-21 00:49:00
6:10 PM,30.6,10.4,43,29.52,10.0,South,4.6,-,N/A,,Clear,190,2013-02-21 01:10:00
6:30 PM,30.0,11.3,46,29.53,10.0,Calm,Calm,-,N/A,,Scattered Clouds,0,2013-02-21 01:30:00
6:50 PM,29.7,11.3,46,29.54,10.0,Calm,Calm,-,N/A,,Scattered Clouds,0,2013-02-21 01:50:00
7:09 PM,29.3,11.3,47,29.54,10.0,Calm,Calm,-,N/A,,Scattered Clouds,0,2013-02-21 02:09:00
7:30 PM,26.2,11.5,54,29.54,10.0,Calm,Calm,-,N/A,,Clear,0,2013-02-21 02:30:00
8:09 PM,25.5,11.8,56,29.54,10.0,Calm,Calm,-,N/A,,Clear,0,2013-02-21 03:09:00
8:29 PM,26.1,10.8,52,29.54,10.0,Calm,Calm,-,N/A,,Clear,0,2013-02-21 03:29:00
8:50 PM,23.0,10.6,59,29.54,10.0,Calm,Calm,-,N/A,,Clear,0,2013-02-21 03:50:00
9:32 PM,22.5,11.5,63,29.54,10.0,Calm,Calm,-,N/A,,Mostly Cloudy,0,2013-02-21 04:32:00
9:50 PM,22.8,11.5,62,29.55,10.0,Calm,Calm,-,N/A,,Overcast,0,2013-02-21 04:50:00
10:10 PM,23.0,11.7,62,29.55,10.0,Calm,Calm,-,N/A,,Mostly Cloudy,0,2013-02-21 05:10:00
10:32 PM,22.8,11.3,61,29.55,10.0,Calm,Calm,-,N/A,,Overcast,0,2013-02-21 05:32:00
10:50 PM,21.9,12.0,66,29.56,10.0,Calm,Calm,-,N/A,,Overcast,0,2013-02-21 05:50:00
11:11 PM,22.6,11.8,63,29.55,10.0,Calm,Calm,-,N/A,,Overcast,0,2013-02-21 06:11:00
11:31 PM,21.4,12.0,67,29.56,10.0,Calm,Calm,-,N/A,,Overcast,0,2013-02-21 06:31:00
11:49 PM,23.9,12.0,61,29.56,10.0,SE,5.8,-,N/A,,Overcast,130,2013-02-21 06:49:00